Location: Hoyos del Collado
(40.3594°N, 5.2003°W)
Time: 01:54:34
(UTC+00:00)

USA 229 DEB - Pass Details

Date: 18 April 2024
Orbit: 892 x 1319 km, 63.4° (Epoch: 18 May)

Event Time Altitude Azimuth Distance (km) Brightness Sun altitude
Rises 19:49:49 0° 176° (S) 3,502 6.1 -9.2°
Reaches altitude 10° 19:52:40 10° 164° (SSE) 2,591 5.4 -9.7°
Maximum altitude 19:57:30 26° 110° (ESE) 1,778 4.3 -10.5°
Drops below altitude 10° 20:02:37 10° 56° (ENE) 2,767 5.6 -11.4°
Sets 20:05:44 0° 45° (NE) 3,791 6.4 -11.9°
